Temp
38 30 24 27 30 30 26 21 18 26 33 30 27 28 32 37 38 38 39 41 45 47 52 55 60 67 67 67 66 67 65 67 66 65 65 67 67 69 70 69 68 67 68 66
30 24 33 35 33 29 27 21 19 26 31 30 26 25 32 36 37 39 39 41 43 47 50 54 57 63 66 63 66 66 65 66 65 64 66 67 68 68 70 67 65 64 64 65
23 30 37 33 29 26 24 20 21 20 26 29 25 20 25 33 37 39 42 44 45 47 48 51 55 60 63 61 65 65 66 65 65 66 65 66 66 66 66 66 62 62 62 64
26 36 32 29 27 27 17 29 26 24 20 11 25 9 23 28 30 35 39 42 43 46 49 52 54 57 61 64 63 66 66 64 65 65 64 63 62 61 64 65 64 60 61 63
23 27 27 25 27 30 22 31 26 24 18 16 18 13 16 26 22 26 31 35 38 45 49 50 53 57 59 60 60 65 65 63 63 63 64 62 62 63 64 64 63 59 60 63
25 38 32 28 32 32 33 25 24 25 18 2 17 16 14 16 21 24 28 31 35 39 48 50 55 57 57 57 57 63 63 62 61 63 63 63 61 61 61 61 61 60 58 60
25 27 31 34 25 29 24 16 5 -2 2 8 21 15 13 21 26 25 26 29 34 39 43 50 53 55 56 56 56 60 63 61 61 62 62 61 61 61 61 60 60 60 59 58
12 11 24 31 22 15 20 17 7 -2 2 7 19 12 13 25 28 28 29 29 35 39 43 46 52 55 55 57 57 59 61 61 60 61 61 61 60 59 60 61 61 61 61 60
11 16 29 32 32 24 18 13 21 11 12 8 17 19 23 24 24 24 25 28 30 33 39 43 52 56 57 57 57 58 58 60 60 60 60 60 60 60 60 61 61 61 62 62
18 11 27 30 33 28 21 23 7 9 -2 0 12 10 9 13 17 20 21 23 28 34 39 46 53 55 57 58 59 59 59 59 59 60 60 60 59 61 61 60 59 60 61 61
19 14 18 25 21 14 15 12 14 12 13 3 2 9 18 15 17 16 20 25 28 31 38 46 55 56 57 58 58 58 59 59 58 59 58 57 58 58 59 58 58 59 59 60
20 17 10 15 23 24 19 14 14 7 5 10 7 6 23 19 18 19 20 25 28 32 36 39 52 57 58 60 57 58 57 58 58 59 58 57 57 57 57 56 57 58 57 58
18 11 8 8 14 23 16 16 15 15 14 8 2 6 21 19 18 20 21 24 27 31 33 36 41 53 55 56 55 56 58 58 59 58 58 56 56 56 56 56 56 56 55 55
29 14 12 8 13 18 13 13 14 14 6 6 7 7 14 14 15 19 22 24 26 28 31 34 36 42 52 54 54 56 58 59 58 57 56 55 55 56 56 56 55 54 54 54
21 8 19 20 21 20 15 12 13 10 10 5 8 8 12 14 15 18 22 24 26 26 29 31 33 36 42 51 54 53 57 59 58 57 56 55 55 56 55 54 53 53 53 53
24 12 18 13 23 19 16 14 13 14 12 11 11 9 16 18 20 19 21 23 24 25 26 30 33 35 38 43 52 54 55 56 57 57 56 56 55 55 54 53 52 51 52 51
16 17 13 10 21 20 13 11 12 13 14 12 5 10 16 16 17 19 21 23 23 24 26 28 31 34 36 40 46 54 56 58 57 56 56 56 55 54 53 53 51 51 50 50
17 17 17 10 16 8 13 21 19 14 14 14 13 14 16 17 19 23 23 23 24 25 26 28 31 34 36 39 44 48 57 58 57 56 55 55 55 54 53 52 51 50 50 49
26 19 9 9 10 14 16 17 15 11 10 16 14 16 17 19 22 22 24 26 25 26 27 29 32 34 35 37 41 49 55 56 56 55 54 55 55 52 51 49 49 49 49 48
26 23 14 14 7 5 9 20 24 23 9 18 16 16 16 19 12 17 24 26 26 28 28 29 31 34 34 36 42 52 53 54 53 54 54 54 53 51 50 50 49 49 49 48
10 8 8 12 7 10 18 22 26 7 8 18 18 17 18 17 19 23 26 26 27 28 28 30 31 32 33 35 41 41 43 44 52 53 53 52 51 51 50 49 49 48 48 46
1 3 7 10 3 2 23 21 10 15 19 19 19 20 21 22 23 24 25 25 26 27 28 29 30 32 33 34 36 36 35 37 49 51 49 47 48 49 48 47 46 45 44 43
2 6 5 9 11 22 22 19 24 23 19 19 20 22 23 22 23 24 24 25 26 27 27 29 29 30 32 33 33 33 33 37 44 45 42 40 41 43 44 41 38 38 39 39
11 13 7 11 18 16 21 22 23 23 21 23 24 24 24 22 23 23 24 25 26 27 26 28 28 28 29 32 33 33 34 36 37 36 36 36 37 36 36 39 40 39 38 38
10 11 12 12 17 17 21 20 21 21 23 23 25 25 23 23 22 23 23 24 25 25 26 28 27 28 29 31 32 33 33 35 34 34 35 35 36 35 35 36 37 37 37 42
11 7 5 6 14 11 13 19 21 20 20 23 23 22 24 23 22 23 23 24 25 24 25 27 27 28 29 30 31 32 34 34 34 34 34 35 35 36 36 37 37 42 42 43
MSLP
1017.78 1017.85 1017.93 1018.41 1018.67 1018.76 1018.48 1017.97 1017.20 1015.83 1015.24 1014.54 1013.58 1012.69 1011.64 1010.78 1010.02 1009.43 1009.06 1008.55 1008.11 1007.03 1006.44 1005.66 1004.07 1002.33 1001.96 1002.31 1002.82 1003.28 1003.81 1004.88 1005.86 1006.98 1007.70 1009.05 1009.39 1010.23 1012.12 1013.44 1014.58 1015.32 1016.32 1017.31
1018.96 1018.16 1018.36 1018.58 1018.58 1018.56 1018.17 1017.69 1016.80 1015.26 1015.00 1014.59 1013.23 1011.65 1010.97 1010.18 1009.41 1008.82 1008.24 1007.57 1007.18 1006.55 1006.13 1005.06 1004.01 1002.51 1001.73 1001.93 1002.14 1002.50 1002.92 1003.34 1004.89 1006.25 1007.01 1007.97 1009.49 1009.55 1011.14 1013.15 1014.41 1015.32 1016.27 1017.12
1019.92 1019.03 1018.54 1018.42 1018.32 1018.17 1018.21 1017.71 1016.39 1015.81 1014.03 1013.84 1012.90 1011.02 1010.61 1009.34 1008.48 1007.95 1007.22 1006.60 1006.11 1005.77 1005.34 1004.78 1003.64 1002.35 1001.66 1001.57 1001.45 1001.82 1002.10 1001.88 1003.06 1005.33 1006.01 1008.23 1009.23 1009.65 1011.06 1012.76 1014.62 1015.71 1016.47 1017.13
1020.10 1019.11 1018.74 1018.50 1018.38 1018.39 1017.56 1017.11 1016.01 1014.87 1014.52 1013.44 1012.85 1011.53 1010.54 1009.78 1008.71 1007.84 1007.21 1005.94 1005.41 1004.88 1004.57 1004.18 1003.12 1002.28 1001.20 1000.82 1001.08 1001.33 1001.56 1001.96 1003.46 1004.26 1005.29 1006.58 1007.43 1009.15 1010.39 1011.69 1013.68 1015.20 1016.16 1016.96
1020.74 1019.54 1018.85 1018.82 1018.64 1018.62 1017.86 1016.79 1015.05 1013.90 1013.41 1013.35 1011.70 1012.39 1012.03 1010.78 1010.26 1009.64 1008.65 1007.21 1006.09 1004.61 1003.14 1003.10 1002.65 1002.01 1001.49 1000.78 1000.66 1000.70 1001.35 1002.32 1002.08 1003.23 1004.80 1005.29 1007.60 1008.66 1009.94 1011.56 1012.88 1014.89 1016.02 1016.90
1021.05 1018.91 1018.74 1019.01 1018.87 1018.45 1017.91 1017.08 1014.83 1012.85 1012.47 1013.20 1012.46 1013.01 1012.71 1012.44 1012.21 1011.03 1009.86 1008.52 1006.97 1005.22 1003.49 1002.69 1002.10 1001.71 1001.14 1000.67 1000.59 1000.20 1001.44 1002.56 1001.33 1002.42 1004.69 1004.91 1007.41 1008.74 1009.43 1011.50 1012.76 1014.16 1015.61 1016.72
1021.24 1019.62 1019.17 1019.25 1018.89 1018.56 1019.00 1018.19 1016.25 1014.85 1013.91 1013.62 1012.84 1013.35 1014.06 1013.84 1013.19 1012.79 1011.24 1009.14 1007.37 1005.25 1003.74 1001.59 1000.95 1000.68 1000.64 1000.35 1000.51 1000.12 1000.57 1002.12 1002.91 1002.74 1003.68 1005.34 1006.50 1008.54 1009.25 1010.40 1011.83 1013.29 1014.58 1015.84
1023.30 1020.95 1020.15 1020.02 1019.68 1020.02 1019.88 1020.37 1020.43 1018.93 1016.77 1015.38 1013.23 1012.91 1013.80 1014.05 1013.51 1012.87 1011.65 1009.82 1007.43 1004.82 1002.51 1001.08 999.89 1000.01 1000.05 999.92 1000.12 1000.06 1000.57 1001.35 1001.93 1002.51 1004.12 1005.34 1005.66 1007.43 1008.70 1009.82 1011.11 1012.77 1013.49 1014.69
1025.02 1022.35 1020.95 1020.10 1019.99 1020.78 1020.60 1020.95 1020.52 1019.70 1017.82 1016.47 1013.52 1012.68 1012.99 1013.31 1012.13 1011.94 1011.13 1009.40 1007.42 1005.33 1002.99 1000.89 999.41 999.14 999.25 999.30 999.72 1000.00 1000.80 1001.59 1002.20 1002.51 1004.75 1004.65 1006.08 1007.13 1007.71 1010.51 1010.97 1012.52 1013.31 1014.39
1025.97 1023.70 1021.33 1020.25 1020.28 1021.21 1021.45 1021.92 1021.12 1020.53 1018.98 1016.95 1014.68 1014.37 1015.08 1014.39 1014.02 1012.96 1011.26 1009.31 1006.98 1004.71 1002.53 1000.36 998.61 998.68 998.94 998.78 999.17 999.51 1000.40 1001.55 1002.35 1002.21 1003.95 1005.37 1005.99 1006.54 1007.97 1009.94 1010.89 1012.46 1013.08 1014.16
1026.10 1025.34 1022.68 1021.62 1021.26 1022.29 1022.42 1022.66 1022.63 1021.82 1020.36 1019.64 1017.76 1016.13 1016.23 1016.52 1015.71 1014.23 1011.88 1009.56 1007.46 1004.78 1002.40 999.94 998.59 998.73 998.54 998.23 998.49 999.26 1000.33 1001.26 1002.34 1002.58 1003.83 1005.37 1006.64 1006.55 1008.30 1008.91 1010.52 1012.21 1013.03 1014.31
1026.03 1025.56 1024.01 1022.47 1022.27 1022.57 1023.15 1023.89 1023.67 1022.91 1021.70 1021.22 1020.44 1017.38 1016.46 1017.48 1016.68 1015.01 1012.47 1010.14 1007.93 1005.76 1003.32 1001.70 999.57 998.44 997.79 997.60 998.10 998.78 1000.02 1001.11 1002.04 1003.23 1004.18 1005.52 1006.05 1006.94 1008.60 1008.81 1010.46 1011.97 1013.24 1014.36
1026.14 1025.57 1024.48 1022.90 1022.97 1022.68 1023.31 1024.50 1024.33 1023.62 1022.93 1022.22 1021.74 1019.23 1018.44 1017.94 1016.72 1015.07 1012.83 1010.70 1008.04 1006.30 1004.18 1002.75 1000.69 997.86 997.47 997.50 998.29 999.03 999.94 1001.02 1002.17 1003.55 1004.52 1005.40 1006.85 1007.43 1007.95 1008.71 1010.89 1012.24 1013.02 1014.48
1025.89 1026.25 1026.21 1025.21 1024.10 1023.82 1024.01 1024.66 1024.70 1024.41 1023.93 1023.26 1022.38 1020.29 1018.65 1018.07 1016.32 1014.00 1012.36 1010.55 1009.15 1007.48 1005.38 1003.77 1001.43 999.92 998.26 998.40 998.84 999.36 1000.07 1000.96 1002.08 1003.32 1004.33 1005.43 1006.92 1008.01 1008.83 1010.18 1010.99 1011.93 1013.17 1014.35
1026.11 1026.31 1025.47 1024.42 1023.61 1023.23 1024.33 1024.86 1025.06 1024.90 1024.76 1024.36 1022.76 1021.69 1020.44 1019.34 1017.32 1015.82 1013.81 1012.30 1009.77 1007.53 1007.07 1005.66 1004.38 1002.62 1001.02 999.54 999.73 1000.06 1000.27 1001.18 1002.19 1003.51 1004.45 1005.67 1006.91 1007.99 1008.84 1010.04 1011.15 1012.15 1013.26 1014.52
1026.20 1026.04 1025.29 1023.73 1022.71 1023.03 1023.60 1024.60 1025.30 1025.13 1024.92 1024.63 1023.37 1022.38 1021.79 1020.11 1018.20 1016.29 1013.87 1011.52 1010.42 1010.01 1008.94 1007.38 1005.56 1004.37 1003.12 1001.95 1001.06 1000.77 1000.90 1001.66 1002.43 1003.93 1005.05 1006.18 1007.09 1007.82 1009.38 1010.69 1011.21 1012.32 1013.65 1015.00
1026.43 1026.18 1025.48 1023.68 1022.50 1022.32 1023.92 1025.24 1025.42 1025.17 1025.40 1025.24 1023.89 1023.33 1021.39 1019.72 1018.10 1016.39 1014.59 1013.17 1012.21 1009.48 1008.83 1007.93 1006.84 1005.67 1004.84 1003.54 1002.40 1001.41 1001.57 1001.98 1003.02 1004.41 1005.47 1006.65 1007.14 1008.39 1009.49 1010.56 1011.75 1012.65 1014.18 1014.88
1026.40 1026.25 1025.70 1024.42 1023.20 1022.99 1024.23 1024.43 1025.32 1025.38 1025.33 1025.33 1024.86 1023.69 1022.11 1021.01 1019.38 1017.46 1016.69 1014.47 1012.75 1011.26 1008.97 1007.63 1007.23 1006.40 1005.69 1004.43 1003.10 1002.26 1002.14 1002.72 1003.25 1004.54 1005.98 1007.06 1008.14 1009.27 1010.13 1011.17 1012.14 1013.06 1014.16 1015.05
1026.62 1026.47 1026.46 1025.65 1024.72 1024.28 1024.77 1025.12 1024.55 1025.43 1025.15 1025.17 1024.94 1023.84 1022.66 1020.17 1018.27 1017.96 1017.52 1016.28 1015.18 1013.54 1011.76 1010.42 1009.10 1007.70 1006.33 1005.19 1004.14 1003.05 1002.99 1003.34 1003.97 1005.60 1006.45 1007.57 1008.26 1009.31 1010.38 1011.37 1012.13 1013.17 1014.16 1015.15
1027.24 1027.02 1027.36 1026.43 1026.08 1025.83 1027.19 1025.67 1024.65 1023.89 1024.77 1024.95 1024.98 1023.83 1022.47 1021.02 1019.07 1017.81 1016.42 1015.88 1014.91 1014.00 1012.85 1011.35 1009.96 1008.86 1007.22 1005.98 1004.55 1003.68 1004.14 1004.45 1005.30 1006.00 1006.80 1007.99 1008.86 1009.13 1010.18 1011.31 1012.38 1013.43 1014.31 1015.17
1028.80 1028.57 1028.35 1027.76 1026.93 1027.11 1027.42 1026.16 1024.54 1025.40 1027.10 1026.14 1025.55 1024.33 1023.03 1021.75 1021.83 1020.27 1018.74 1017.18 1015.95 1014.64 1013.37 1012.13 1010.95 1009.68 1008.56 1007.13 1005.89 1005.54 1005.76 1006.35 1006.18 1006.79 1007.95 1008.62 1009.26 1009.49 1010.24 1011.45 1012.41 1013.41 1014.49 1015.53
1031.34 1031.31 1030.16 1029.45 1028.25 1028.12 1027.67 1027.23 1027.92 1029.16 1027.91 1027.06 1025.90 1024.57 1023.50 1022.59 1021.14 1020.53 1019.21 1018.41 1016.87 1015.38 1014.34 1012.98 1011.92 1010.40 1009.33 1008.65 1007.91 1007.63 1007.38 1007.76 1007.51 1008.05 1008.68 1009.46 1009.85 1010.33 1010.94 1011.86 1012.83 1014.03 1014.88 1015.93
1032.56 1032.92 1032.67 1031.95 1029.86 1029.26 1029.07 1029.15 1029.10 1029.02 1028.41 1027.21 1025.93 1024.58 1023.73 1022.84 1021.98 1020.72 1019.85 1018.79 1017.63 1016.70 1015.49 1014.17 1012.98 1011.72 1010.72 1010.08 1009.78 1009.21 1009.10 1008.47 1008.28 1008.78 1009.46 1010.11 1010.62 1011.21 1011.69 1012.31 1013.44 1014.60 1015.36 1016.20
1032.97 1033.12 1033.10 1032.23 1030.28 1030.06 1029.50 1029.48 1029.37 1029.28 1028.62 1027.52 1026.37 1025.22 1024.22 1023.16 1022.28 1021.38 1020.24 1018.93 1017.81 1016.93 1015.70 1014.57 1013.56 1012.59 1012.04 1011.46 1011.04 1010.68 1010.13 1009.52 1009.10 1009.70 1010.50 1011.05 1011.50 1012.05 1012.58 1013.29 1013.90 1014.82 1015.74 1016.50
1033.43 1033.50 1033.07 1032.31 1031.06 1030.47 1029.42 1029.83 1029.89 1029.04 1028.48 1027.60 1026.47 1025.65 1024.91 1023.98 1022.97 1022.28 1021.07 1019.69 1018.57 1017.79 1016.97 1016.29 1015.24 1014.28 1013.70 1013.00 1012.27 1011.75 1011.10 1010.68 1010.77 1011.11 1011.35 1011.86 1012.39 1012.92 1013.72 1014.30 1014.85 1015.39 1016.04 1016.24
1033.42 1033.74 1033.79 1032.86 1032.31 1032.24 1031.46 1030.70 1030.22 1029.63 1028.70 1027.66 1026.73 1025.84 1025.12 1024.52 1023.61 1022.80 1022.05 1021.40 1020.46 1019.37 1018.10 1017.08 1016.30 1015.52 1014.84 1014.22 1013.59 1012.77 1012.30 1011.99 1011.78 1012.05 1012.39 1012.73 1013.05 1013.50 1014.14 1014.90 1015.72 1016.45 1016.75 1017.09
Wind_Speed
8 7 7 11 10 14 16 17 19 22 20 24 21 22 23 21 19 18 21 20 19 21 19 22 25 21 9 16 16 21 24 25 16 16 16 14 15 16 15 9 16 18 16 16
9 4 8 13 14 14 17 17 18 21 18 20 23 26 22 21 22 22 19 23 20 20 19 21 22 20 15 10 18 21 24 28 20 15 15 15 15 16 17 13 14 14 15 14
9 11 14 15 13 13 14 19 18 23 27 20 22 25 15 21 23 21 21 20 21 21 18 22 22 20 15 14 19 19 24 29 25 23 17 15 15 14 14 15 13 13 15 16
8 12 17 12 14 15 16 18 26 27 22 15 8 18 13 13 12 13 13 15 19 20 20 22 21 18 15 14 11 21 24 23 22 24 21 24 16 16 14 14 14 15 17 15
7 21 11 11 12 15 21 24 30 31 22 12 21 4 5 12 15 18 20 22 23 18 22 22 24 19 18 9 8 15 18 12 25 23 22 20 18 14 17 15 20 16 15 15
21 14 3 4 12 17 18 21 29 13 1 1 3 2 4 9 16 20 21 22 23 23 16 23 25 20 17 10 5 12 16 17 19 25 24 25 22 20 18 16 15 14 13 12
13 12 4 4 13 10 17 19 9 8 6 5 5 12 6 12 16 20 22 26 23 23 21 21 22 19 15 11 7 9 15 16 25 24 24 22 26 23 23 22 16 19 14 13
10 9 5 13 3 4 8 11 6 9 8 15 22 1 4 15 14 19 22 22 20 21 17 16 20 16 13 9 7 8 16 17 19 19 23 25 27 18 15 19 17 14 15 15
7 7 21 16 9 7 7 12 15 8 14 10 7 2 5 27 30 31 30 25 21 21 19 19 19 16 14 9 8 11 14 14 18 24 18 18 17 22 22 19 19 15 16 14
6 14 7 11 5 1 5 10 7 5 7 10 9 6 6 27 27 32 31 24 23 19 18 16 15 14 14 9 8 11 17 18 14 20 14 17 17 19 19 18 17 17 17 17
7 4 12 13 10 8 5 6 4 5 4 6 9 5 10 26 25 31 29 23 21 19 18 18 11 16 16 10 10 14 14 18 17 17 15 14 14 17 18 18 17 17 17 17
3 5 7 22 5 11 15 6 5 4 6 8 5 7 17 22 25 24 27 22 20 17 17 17 10 17 15 11 11 13 15 17 17 15 18 16 15 16 16 17 16 16 17 17
4 3 9 8 2 2 4 12 11 11 4 3 8 13 20 20 26 24 22 22 21 18 20 19 17 7 7 9 11 14 16 16 17 16 15 17 15 15 15 18 16 16 16 16
6 2 7 10 17 16 3 14 17 8 3 10 6 28 22 29 30 32 28 28 20 17 19 19 20 18 2 11 12 14 15 16 15 16 18 17 17 14 14 16 17 16 17 15
2 4 11 19 19 1 4 13 17 12 5 5 20 19 20 28 29 27 23 21 23 27 22 20 17 17 15 2 11 11 14 17 16 16 17 15 15 13 12 12 15 15 14 14
6 5 14 18 7 10 1 17 17 10 4 5 19 17 23 25 23 21 29 29 27 22 22 18 18 17 15 14 4 12 13 14 15 13 13 15 14 15 13 13 13 13 13 12
3 7 11 6 14 11 3 9 16 12 3 10 20 24 25 28 28 22 29 27 25 27 23 21 17 16 13 12 10 11 13 17 18 14 12 11 14 14 13 13 13 14 13 13
4 8 5 7 12 2 4 9 16 14 2 16 21 23 23 22 24 14 23 26 26 26 27 24 19 16 14 13 10 6 13 13 16 15 15 15 13 14 14 14 14 13 11 13
7 6 4 4 9 2 4 16 23 12 4 19 24 22 24 27 22 7 22 23 21 21 19 18 17 15 14 12 11 5 12 14 15 14 13 13 16 15 15 14 14 12 11 10
11 8 3 7 5 5 9 20 24 8 5 25 24 24 27 23 20 21 30 26 25 21 18 18 18 13 13 13 11 6 11 14 13 13 13 12 12 16 15 15 14 11 10 11
5 5 4 6 4 3 13 15 19 9 12 24 22 22 22 19 13 16 20 22 21 19 21 20 14 12 13 14 10 13 11 8 7 11 12 11 10 12 13 13 11 11 10 10
1 4 5 6 5 5 17 6 8 7 15 19 20 19 19 19 20 18 19 19 20 20 19 18 13 13 15 15 12 11 12 7 6 11 11 9 10 8 10 13 11 11 11 11
3 4 3 2 5 9 11 5 8 11 15 16 18 21 17 18 18 20 18 17 17 16 15 15 13 14 15 16 14 12 11 8 7 11 11 9 9 9 10 12 11 9 9 9
2 3 3 5 2 9 10 10 12 14 14 18 16 17 17 19 18 18 17 18 17 17 18 16 16 17 17 16 14 12 10 8 7 10 9 8 10 9 8 7 7 8 8 8
4 1 4 7 6 12 1 16 15 19 16 17 17 15 15 16 17 16 15 18 17 17 17 14 15 15 15 14 14 13 11 8 9 7 7 7 7 9 9 7 5 6 3 7
5 5 2 5 6 2 9 14 17 14 18 16 14 16 15 14 15 14 12 12 13 15 16 16 16 15 15 14 13 14 13 8 6 8 6 5 7 7 7 9 9 13 14 15
Wind_Direction
320 289 12 347 323 308 295 286 286 292 294 295 289 286 282 281 280 259 260 263 262 263 273 275 282 271 235 205 199 190 178 177 172 170 161 162 156 151 160 135 143 148 146 155
341 50 5 320 311 308 298 307 301 294 296 295 294 283 285 276 276 272 262 256 250 254 260 267 272 270 256 227 207 196 195 176 167 177 163 156 158 152 158 144 148 146 145 146
312 292 331 319 317 322 325 303 304 298 301 283 278 281 273 271 257 258 263 242 252 252 247 260 267 268 255 229 211 205 200 178 163 164 160 160 152 153 155 148 142 148 148 152
302 342 320 325 312 347 308 305 294 292 302 296 302 289 323 348 350 354 321 248 242 240 236 252 262 269 255 242 218 208 202 187 167 163 160 159 152 157 157 158 147 154 156 154
280 310 306 315 327 323 298 316 303 296 281 279 285 249 7 358 356 347 337 330 325 295 223 232 251 258 271 287 215 203 205 203 164 164 168 153 159 152 152 162 151 149 153 154
318 295 200 276 303 311 327 316 304 292 236 327 270 329 58 14 345 335 329 321 315 310 270 222 233 247 260 263 278 198 182 181 174 164 170 160 166 158 149 155 153 151 151 156
327 326 62 349 329 306 341 338 330 352 11 307 310 327 61 355 6 345 329 318 309 298 294 225 223 236 249 244 243 212 197 176 181 176 162 167 157 165 157 157 160 157 157 161
345 326 49 330 342 311 329 349 329 312 329 302 305 266 119 18 356 343 332 314 311 303 302 293 213 220 244 237 231 194 180 186 181 164 171 166 160 149 159 162 159 166 162 161
314 271 324 300 13 25 322 358 304 258 261 268 257 173 196 354 352 348 334 324 319 306 299 292 215 216 238 232 219 184 173 171 195 158 161 155 165 159 157 165 156 166 156 156
280 296 290 325 330 314 41 335 330 330 307 309 325 331 350 356 344 335 328 320 321 310 312 282 193 201 234 212 207 176 172 169 160 146 159 161 172 157 151 157 151 162 156 153
301 248 291 304 333 60 355 3 338 280 294 320 335 316 5 351 337 327 321 324 324 322 323 312 194 211 229 207 181 160 151 158 160 150 139 148 160 145 152 145 145 152 148 152
270 288 300 300 124 127 69 5 335 309 324 297 298 275 13 335 331 324 321 329 333 333 343 339 278 206 200 194 150 152 148 157 148 141 149 141 134 146 149 138 142 148 151 148
307 307 305 326 311 216 60 12 353 317 261 13 310 304 328 331 330 333 329 338 348 348 357 350 347 180 164 146 140 149 146 148 146 144 139 130 129 147 155 134 154 152 143 159
355 290 270 283 307 303 331 10 358 332 320 306 310 315 332 337 338 340 346 346 348 353 3 357 2 356 99 134 137 146 140 144 139 137 137 134 138 155 152 147 147 145 146 149
64 260 294 304 297 68 92 24 354 338 3 335 321 326 336 337 334 333 342 339 355 12 359 354 350 354 0 57 137 134 127 142 134 134 128 133 138 133 123 134 133 135 139 149
337 282 317 306 284 195 75 22 354 338 357 298 329 334 336 330 331 332 348 356 2 357 355 346 356 355 358 1 147 141 133 129 117 125 131 134 140 129 138 138 128 132 145 149
310 308 321 276 317 307 82 351 354 335 7 359 356 330 328 336 338 341 352 354 351 349 351 352 354 352 343 348 341 143 144 139 137 130 126 138 134 139 137 135 140 146 156 150
278 317 284 290 323 33 184 20 341 335 36 10 348 336 331 330 330 325 351 350 350 344 346 351 353 344 344 340 345 359 138 135 134 138 146 145 143 142 141 147 148 144 149 154
5 316 315 293 310 159 59 341 338 348 298 14 342 337 337 334 327 345 354 352 347 343 341 342 338 339 339 340 329 7 119 127 121 137 139 141 142 141 142 142 144 144 144 145
357 317 188 307 299 351 353 331 328 305 248 4 342 336 336 337 359 346 342 346 343 343 344 345 338 344 348 349 344 117 115 113 122 134 133 139 149 145 145 145 145 149 147 143
343 346 316 331 285 113 3 355 331 33 310 334 334 329 331 348 340 320 332 341 340 342 344 345 342 357 3 4 16 50 62 63 117 127 134 136 146 143 140 139 139 136 135 133
18 339 341 342 358 351 16 1 43 303 318 323 322 323 333 337 336 340 340 340 340 342 342 345 348 9 16 17 25 32 39 340 121 119 119 119 121 123 127 129 122 122 125 124
8 161 226 239 290 355 350 46 358 353 331 323 325 328 338 335 342 338 336 342 345 351 347 351 0 9 18 21 21 29 357 347 101 107 107 106 102 113 123 122 119 116 121 126
47 172 245 340 37 358 310 15 357 346 330 324 323 330 336 336 340 340 341 345 349 356 358 358 5 14 16 14 15 17 4 16 59 99 102 105 110 97 89 102 114 126 135 135
205 66 277 264 319 335 20 352 339 328 332 323 327 339 340 338 341 344 345 346 350 353 355 3 5 8 10 4 13 11 11 25 66 76 93 94 102 109 99 84 108 116 87 151
174 192 183 259 348 308 293 316 316 332 323 325 331 339 343 340 338 342 347 345 353 349 347 1 4 8 6 10 13 12 9 15 59 73 67 95 111 108 108 112 104 94 103 112